Time,TemperatureF,DewpointF,PressureIn,WindDirection,WindDirectionDegrees,WindSpeedMPH,WindSpeedGustMPH,Humidity,HourlyPrecipIn,Conditions,Clouds,dailyrainin,SoftwareType,DateUTC
2013-01-02 00:02:00,6.4,-4.5,30.55,South,171,3.0,7.0,60,0.00,,,0.00,meteohub,2013-01-02 07:02:00,
2013-01-02 00:07:00,6.8,-4.2,30.56,SSE,156,3.0,7.0,60,0.00,,,0.00,meteohub,2013-01-02 07:07:00,
2013-01-02 00:12:00,7.2,-4.2,30.56,South,187,4.0,7.0,59,0.00,,,0.00,meteohub,2013-01-02 07:12:00,
2013-01-02 00:17:00,7.0,-4.4,30.56,South,169,3.0,6.0,59,0.00,,,0.00,meteohub,2013-01-02 07:17:00,
2013-01-02 00:22:00,7.0,-4.0,30.56,SSW,197,3.0,6.0,60,0.00,,,0.00,meteohub,2013-01-02 07:22:00,
2013-01-02 00:27:00,7.2,-4.2,30.57,SSE,159,1.0,6.0,59,0.00,,,0.00,meteohub,2013-01-02 07:27:00,
2013-01-02 00:32:00,7.2,-4.2,30.56,SSW,198,4.0,6.0,59,0.00,,,0.00,meteohub,2013-01-02 07:32:00,
2013-01-02 00:37:00,7.3,-4.0,30.56,South,173,3.0,7.0,59,0.00,,,0.00,meteohub,2013-01-02 07:37:00,
2013-01-02 00:42:00,7.5,-4.2,30.57,SSW,207,3.0,7.0,58,0.00,,,0.00,meteohub,2013-01-02 07:42:00,
2013-01-02 00:47:00,7.9,-3.8,30.57,South,186,3.0,7.0,58,0.00,,,0.00,meteohub,2013-01-02 07:47:00,
2013-01-02 00:52:00,8.1,-4.0,30.57,SE,138,3.0,7.0,57,0.00,,,0.00,meteohub,2013-01-02 07:52:00,
2013-01-02 00:57:00,8.1,-4.0,30.57,SE,138,2.0,6.0,57,0.00,,,0.00,meteohub,2013-01-02 07:57:00,
2013-01-02 01:02:00,7.9,-4.2,30.57,SSE,156,2.0,5.0,57,0.00,,,0.00,meteohub,2013-01-02 08:02:00,
2013-01-02 01:07:00,7.5,-4.2,30.57,South,169,4.0,4.0,58,0.00,,,0.00,meteohub,2013-01-02 08:07:00,
2013-01-02 01:12:00,7.3,-4.4,30.57,South,179,2.0,4.0,58,0.00,,,0.00,meteohub,2013-01-02 08:12:00,
2013-01-02 01:17:00,7.5,-4.2,30.57,SSE,148,1.0,4.0,58,0.00,,,0.00,meteohub,2013-01-02 08:17:00,
2013-01-02 01:22:00,7.5,-4.2,30.58,SSE,161,2.0,4.0,58,0.00,,,0.00,meteohub,2013-01-02 08:22:00,
2013-01-02 01:27:00,7.9,-4.2,30.57,SSW,194,2.0,4.0,57,0.00,,,0.00,meteohub,2013-01-02 08:27:00,
2013-01-02 01:32:00,7.9,-4.2,30.58,SSW,211,2.0,4.0,57,0.00,,,0.00,meteohub,2013-01-02 08:32:00,
2013-01-02 01:37:00,7.7,-4.4,30.58,South,184,1.0,3.0,57,0.00,,,0.00,meteohub,2013-01-02 08:37:00,
2013-01-02 01:42:00,7.9,-3.8,30.58,SW,232,0.0,3.0,58,0.00,,,0.00,meteohub,2013-01-02 08:42:00,
2013-01-02 01:47:00,8.4,-3.6,30.58,SW,228,1.0,3.0,57,0.00,,,0.00,meteohub,2013-01-02 08:47:00,
2013-01-02 01:52:00,8.8,-3.6,30.58,SW,219,1.0,3.0,56,0.00,,,0.00,meteohub,2013-01-02 08:52:00,
2013-01-02 01:57:00,8.8,-4.0,30.58,SSW,210,1.0,2.0,55,0.00,,,0.00,meteohub,2013-01-02 08:57:00,
2013-01-02 02:02:00,8.4,-4.0,30.58,SSW,203,0.0,2.0,56,0.00,,,0.00,meteohub,2013-01-02 09:02:00,
2013-01-02 02:07:00,8.6,-3.8,30.58,South,186,0.0,1.0,56,0.00,,,0.00,meteohub,2013-01-02 09:07:00,
2013-01-02 02:12:00,8.6,-3.8,30.57,WSW,249,0.0,1.0,56,0.00,,,0.00,meteohub,2013-01-02 09:12:00,
2013-01-02 02:17:00,8.4,-4.0,30.57,WSW,248,0.0,1.0,56,0.00,,,0.00,meteohub,2013-01-02 09:17:00,
2013-01-02 02:22:00,8.4,-3.6,30.57,WSW,250,0.0,1.0,57,0.00,,,0.00,meteohub,2013-01-02 09:22:00,
2013-01-02 02:27:00,8.2,-3.8,30.57,WSW,240,1.0,1.0,57,0.00,,,0.00,meteohub,2013-01-02 09:27:00,
2013-01-02 02:32:00,8.4,-3.6,30.57,WSW,238,1.0,2.0,57,0.00,,,0.00,meteohub,2013-01-02 09:32:00,
2013-01-02 02:37:00,9.0,-3.5,30.57,SW,236,2.0,2.0,56,0.00,,,0.00,meteohub,2013-01-02 09:37:00,
2013-01-02 02:42:00,9.1,-3.8,30.57,SW,221,2.0,2.0,55,0.00,,,0.00,meteohub,2013-01-02 09:42:00,
2013-01-02 02:47:00,9.3,-3.6,30.57,SW,221,1.0,2.0,55,0.00,,,0.00,meteohub,2013-01-02 09:47:00,
2013-01-02 02:52:00,9.3,-4.0,30.57,SSW,203,1.0,2.0,54,0.00,,,0.00,meteohub,2013-01-02 09:52:00,
2013-01-02 02:57:00,9.1,-3.8,30.58,SSW,211,0.0,2.0,55,0.00,,,0.00,meteohub,2013-01-02 09:57:00,
2013-01-02 03:02:00,8.8,-4.0,30.57,ESE,120,0.0,2.0,55,0.00,,,0.00,meteohub,2013-01-02 10:02:00,
2013-01-02 03:07:00,6.4,-6.0,30.57,East,92,1.0,2.0,56,0.00,,,0.00,meteohub,2013-01-02 10:07:00,
2013-01-02 03:12:00,5.4,-5.1,30.58,East,80,0.0,4.0,61,0.00,,,0.00,meteohub,2013-01-02 10:12:00,
2013-01-02 03:17:00,5.9,-4.4,30.58,East,80,0.0,4.0,62,0.00,,,0.00,meteohub,2013-01-02 10:17:00,
2013-01-02 03:22:00,6.1,-4.2,30.58,East,81,0.0,1.0,62,0.00,,,0.00,meteohub,2013-01-02 10:22:00,
2013-01-02 03:27:00,5.9,-4.4,30.57,East,79,0.0,1.0,62,0.00,,,0.00,meteohub,2013-01-02 10:27:00,
2013-01-02 03:32:00,6.1,-4.2,30.57,WNW,301,0.0,1.0,62,0.00,,,0.00,meteohub,2013-01-02 10:32:00,
2013-01-02 03:37:00,6.3,-4.4,30.57,NW,318,0.0,1.0,61,0.00,,,0.00,meteohub,2013-01-02 10:37:00,
2013-01-02 03:42:00,6.3,-4.4,30.56,NW,319,0.0,2.0,61,0.00,,,0.00,meteohub,2013-01-02 10:42:00,
2013-01-02 03:47:00,6.3,-4.4,30.56,WNW,293,1.0,2.0,61,0.00,,,0.00,meteohub,2013-01-02 10:47:00,
2013-01-02 03:52:00,6.6,-4.4,30.56,WNW,287,1.0,2.0,60,0.00,,,0.00,meteohub,2013-01-02 10:52:00,
2013-01-02 03:57:00,7.0,-4.0,30.56,WNW,291,0.0,3.0,60,0.00,,,0.00,meteohub,2013-01-02 10:57:00,
2013-01-02 04:02:00,7.3,-3.6,30.56,West,270,0.0,3.0,60,0.00,,,0.00,meteohub,2013-01-02 11:02:00,
2013-01-02 04:07:00,7.5,-3.8,30.56,West,273,0.0,3.0,59,0.00,,,0.00,meteohub,2013-01-02 11:07:00,
2013-01-02 04:12:00,7.7,-3.6,30.55,West,273,0.0,1.0,59,0.00,,,0.00,meteohub,2013-01-02 11:12:00,
2013-01-02 04:17:00,7.3,-4.0,30.56,West,273,0.0,1.0,59,0.00,,,0.00,meteohub,2013-01-02 11:17:00,
2013-01-02 04:22:00,6.8,-2.2,30.56,West,273,0.0,1.0,66,0.00,,,0.00,meteohub,2013-01-02 11:22:00,
2013-01-02 04:27:00,6.4,-3.8,30.56,West,269,0.0,0.0,62,0.00,,,0.00,meteohub,2013-01-02 11:27:00,
2013-01-02 04:32:00,6.8,-3.5,30.56,SW,233,0.0,1.0,62,0.00,,,0.00,meteohub,2013-01-02 11:32:00,
2013-01-02 04:37:00,7.2,-3.5,30.56,SW,233,0.0,1.0,61,0.00,,,0.00,meteohub,2013-01-02 11:37:00,
2013-01-02 04:42:00,6.6,-4.0,30.56,SW,233,0.0,1.0,61,0.00,,,0.00,meteohub,2013-01-02 11:42:00,
2013-01-02 04:47:00,6.3,-4.0,30.56,SW,233,0.0,1.0,62,0.00,,,0.00,meteohub,2013-01-02 11:47:00,
2013-01-02 04:52:00,6.3,-3.6,30.56,NNE,26,0.0,1.0,63,0.00,,,0.00,meteohub,2013-01-02 11:52:00,
2013-01-02 04:57:00,6.6,-3.6,30.56,NNE,26,1.0,1.0,62,0.00,,,0.00,meteohub,2013-01-02 11:57:00,
2013-01-02 05:02:00,6.4,-3.8,30.56,NNW,330,0.0,1.0,62,0.00,,,0.00,meteohub,2013-01-02 12:02:00,
2013-01-02 05:07:00,6.1,-4.2,30.56,NNW,327,0.0,1.0,62,0.00,,,0.00,meteohub,2013-01-02 12:07:00,
2013-01-02 05:12:00,6.1,-3.8,30.56,NW,323,1.0,1.0,63,0.00,,,0.00,meteohub,2013-01-02 12:12:00,
2013-01-02 05:17:00,6.1,-3.8,30.56,NNW,330,1.0,1.0,63,0.00,,,0.00,meteohub,2013-01-02 12:17:00,
2013-01-02 05:22:00,5.9,-4.4,30.56,NNW,330,2.0,2.0,62,0.00,,,0.00,meteohub,2013-01-02 12:22:00,
2013-01-02 05:27:00,5.4,-4.5,30.56,NNW,330,2.0,3.0,63,0.00,,,0.00,meteohub,2013-01-02 12:27:00,
2013-01-02 05:32:00,5.4,-4.2,30.56,NNW,330,3.0,3.0,64,0.00,,,0.00,meteohub,2013-01-02 12:32:00,
2013-01-02 05:37:00,5.7,-4.2,30.56,NW,321,2.0,3.0,63,0.00,,,0.00,meteohub,2013-01-02 12:37:00,
2013-01-02 05:42:00,5.9,-4.0,30.56,WNW,293,1.0,3.0,63,0.00,,,0.00,meteohub,2013-01-02 12:42:00,
2013-01-02 05:47:00,5.5,-4.7,30.56,West,269,3.0,3.0,62,0.00,,,0.00,meteohub,2013-01-02 12:47:00,
2013-01-02 05:52:00,5.7,-3.8,30.56,WNW,284,1.0,4.0,64,0.00,,,0.00,meteohub,2013-01-02 12:52:00,
2013-01-02 05:57:00,6.3,-3.6,30.56,NW,316,0.0,4.0,63,0.00,,,0.00,meteohub,2013-01-02 12:57:00,
2013-01-02 06:02:00,6.4,-3.5,30.56,NW,311,0.0,4.0,63,0.00,,,0.00,meteohub,2013-01-02 13:02:00,
2013-01-02 06:07:00,6.6,-3.3,30.56,WNW,285,1.0,3.0,63,0.00,,,0.00,meteohub,2013-01-02 13:07:00,
2013-01-02 06:12:00,7.0,-3.3,30.56,NW,304,0.0,2.0,62,0.00,,,0.00,meteohub,2013-01-02 13:12:00,
2013-01-02 06:17:00,7.0,-3.3,30.56,NW,318,0.0,2.0,62,0.00,,,0.00,meteohub,2013-01-02 13:17:00,
2013-01-02 06:22:00,6.8,-3.8,30.57,NNW,335,2.0,2.0,61,0.00,,,0.00,meteohub,2013-01-02 13:22:00,
2013-01-02 06:27:00,5.4,-5.1,30.57,NNW,333,3.0,3.0,61,0.00,,,0.00,meteohub,2013-01-02 13:27:00,
2013-01-02 06:32:00,3.9,-5.8,30.57,NW,325,2.0,5.0,63,0.00,,,0.00,meteohub,2013-01-02 13:32:00,
2013-01-02 06:37:00,3.0,-5.8,30.57,NNW,328,2.0,5.0,66,0.00,,,0.00,meteohub,2013-01-02 13:37:00,
2013-01-02 06:42:00,2.8,-5.6,30.57,WNW,300,4.0,5.0,67,0.00,,,0.00,meteohub,2013-01-02 13:42:00,
2013-01-02 06:47:00,3.0,-5.4,30.57,NNW,327,3.0,6.0,67,0.00,,,0.00,meteohub,2013-01-02 13:47:00,
2013-01-02 06:52:00,2.8,-5.6,30.57,NW,324,2.0,6.0,67,0.00,,,0.00,meteohub,2013-01-02 13:52:00,
2013-01-02 06:57:00,2.8,-5.3,30.57,NW,319,3.0,5.0,68,0.00,,,0.00,meteohub,2013-01-02 13:57:00,
2013-01-02 07:02:00,3.6,-4.5,30.58,WNW,303,3.0,7.0,68,0.00,,,0.00,meteohub,2013-01-02 14:02:00,
2013-01-02 07:07:00,3.2,-5.3,30.58,NW,325,3.0,7.0,67,0.00,,,0.00,meteohub,2013-01-02 14:07:00,
2013-01-02 07:12:00,3.4,-4.7,30.58,NW,310,3.0,7.0,68,0.00,,,0.00,meteohub,2013-01-02 14:12:00,
2013-01-02 07:17:00,3.4,-5.1,30.58,NW,323,5.0,6.0,67,0.00,,,0.00,meteohub,2013-01-02 14:17:00,
2013-01-02 07:22:00,2.8,-5.6,30.58,NW,323,6.0,6.0,67,0.00,,,0.00,meteohub,2013-01-02 14:22:00,
2013-01-02 07:27:00,2.7,-5.4,30.58,NW,326,5.0,8.0,68,0.00,,,0.00,meteohub,2013-01-02 14:27:00,
2013-01-02 07:32:00,2.5,-5.4,30.59,NNW,327,4.0,8.0,69,0.00,,,0.00,meteohub,2013-01-02 14:32:00,
2013-01-02 07:37:00,2.7,-5.3,30.58,NNW,328,3.0,8.0,69,0.00,,,0.00,meteohub,2013-01-02 14:37:00,
2013-01-02 07:42:00,2.8,-5.3,30.59,WNW,300,1.0,8.0,68,0.00,,,0.00,meteohub,2013-01-02 14:42:00,
2013-01-02 07:47:00,3.0,-5.1,30.59,NNW,331,2.0,7.0,68,0.00,,,0.00,meteohub,2013-01-02 14:47:00,
2013-01-02 07:52:00,3.7,-4.5,30.59,NNW,330,3.0,4.0,68,0.00,,,0.00,meteohub,2013-01-02 14:52:00,
2013-01-02 07:57:00,4.1,-4.4,30.59,NNW,327,3.0,5.0,67,0.00,,,0.00,meteohub,2013-01-02 14:57:00,
2013-01-02 08:02:00,4.3,-4.2,30.59,NW,314,1.0,5.0,67,0.00,,,0.00,meteohub,2013-01-02 15:02:00,
2013-01-02 08:07:00,4.5,-4.4,30.59,West,278,1.0,5.0,66,0.00,,,0.00,meteohub,2013-01-02 15:07:00,
2013-01-02 08:12:00,4.8,-4.0,30.59,NW,309,0.0,5.0,66,0.00,,,0.00,meteohub,2013-01-02 15:12:00,
2013-01-02 08:17:00,5.2,-4.0,30.60,NW,304,1.0,3.0,65,0.00,,,0.00,meteohub,2013-01-02 15:17:00,
2013-01-02 08:22:00,5.5,-4.0,30.60,NW,309,1.0,2.0,64,0.00,,,0.00,meteohub,2013-01-02 15:22:00,
2013-01-02 08:27:00,5.9,-4.0,30.60,NW,309,1.0,2.0,63,0.00,,,0.00,meteohub,2013-01-02 15:27:00,
2013-01-02 08:32:00,6.6,-3.3,30.60,West,262,2.0,2.0,63,0.00,,,0.00,meteohub,2013-01-02 15:32:00,
2013-01-02 08:37:00,7.3,-2.9,30.60,West,276,0.0,2.0,62,0.00,,,0.00,meteohub,2013-01-02 15:37:00,
2013-01-02 08:42:00,7.3,-2.9,30.60,NW,321,0.0,2.0,62,0.00,,,0.00,meteohub,2013-01-02 15:42:00,
2013-01-02 08:47:00,7.5,-3.8,30.59,ENE,63,0.0,2.0,59,0.00,,,0.00,meteohub,2013-01-02 15:47:00,
2013-01-02 08:53:00,7.0,-3.6,30.60,ENE,58,0.0,3.0,61,0.00,,,0.00,meteohub,2013-01-02 15:53:00,
2013-01-02 08:58:00,6.3,-5.4,30.60,ENE,65,0.0,3.0,58,0.00,,,0.00,meteohub,2013-01-02 15:58:00,
2013-01-02 09:04:00,7.0,-4.0,30.60,East,85,1.0,4.0,60,0.00,,,0.00,meteohub,2013-01-02 16:04:00,
2013-01-02 09:09:00,7.5,-3.1,30.59,South,178,2.0,4.0,61,0.00,,,0.00,meteohub,2013-01-02 16:09:00,
2013-01-02 09:15:00,8.6,-2.4,30.59,SSW,207,5.0,5.0,60,0.00,,,0.00,meteohub,2013-01-02 16:15:00,
2013-01-02 09:20:00,9.3,-2.4,30.59,SSE,151,2.0,6.0,58,0.00,,,0.00,meteohub,2013-01-02 16:20:00,
2013-01-02 09:26:00,9.9,-2.0,30.59,ESE,121,3.0,6.0,58,0.00,,,0.00,meteohub,2013-01-02 16:26:00,
2013-01-02 09:31:00,9.9,-2.7,30.59,SE,143,1.0,7.0,56,0.00,,,0.00,meteohub,2013-01-02 16:31:00,
2013-01-02 09:37:00,9.7,-2.6,30.59,SE,143,2.0,7.0,57,0.00,,,0.00,meteohub,2013-01-02 16:37:00,
2013-01-02 09:42:00,10.2,-2.4,30.59,SSE,167,5.0,6.0,56,0.00,,,0.00,meteohub,2013-01-02 16:42:00,
2013-01-02 09:47:00,10.6,-2.0,30.59,SSE,155,4.0,6.0,56,0.00,,,0.00,meteohub,2013-01-02 16:47:00,
2013-01-02 09:52:00,10.9,-2.0,30.59,ESE,103,6.0,6.0,55,0.00,,,0.00,meteohub,2013-01-02 16:52:00,
2013-01-02 09:57:00,10.9,-2.0,30.59,SE,133,3.0,6.0,55,0.00,,,0.00,meteohub,2013-01-02 16:57:00,
2013-01-02 10:02:00,11.1,-1.8,30.59,SE,143,3.0,6.0,55,0.00,,,0.00,meteohub,2013-01-02 17:02:00,
2013-01-02 10:07:00,11.5,-1.5,30.59,SE,129,2.0,6.0,55,0.00,,,0.00,meteohub,2013-01-02 17:07:00,
2013-01-02 10:12:00,11.8,-1.7,30.58,SE,124,2.0,6.0,54,0.00,,,0.00,meteohub,2013-01-02 17:12:00,
2013-01-02 10:17:00,12.4,-1.5,30.58,East,98,4.0,4.0,53,0.00,,,0.00,meteohub,2013-01-02 17:17:00,
2013-01-02 10:22:00,12.9,-1.5,30.58,SSE,152,5.0,5.0,52,0.00,,,0.00,meteohub,2013-01-02 17:22:00,
2013-01-02 10:27:00,13.5,-1.3,30.58,SE,131,2.0,5.0,51,0.00,,,0.00,meteohub,2013-01-02 17:27:00,
2013-01-02 10:32:00,13.8,-1.3,30.57,SSE,148,3.0,5.0,50,0.00,,,0.00,meteohub,2013-01-02 17:32:00,
2013-01-02 10:37:00,14.0,-0.8,30.57,ESE,104,1.0,5.0,51,0.00,,,0.00,meteohub,2013-01-02 17:37:00,
2013-01-02 10:42:00,14.4,-0.4,30.57,SE,145,3.0,5.0,51,0.00,,,0.00,meteohub,2013-01-02 17:42:00,
2013-01-02 10:47:00,14.5,-0.8,30.56,SE,124,2.0,5.0,50,0.00,,,0.00,meteohub,2013-01-02 17:47:00,
2013-01-02 10:52:00,15.1,0.1,30.56,SW,236,0.0,5.0,51,0.00,,,0.00,meteohub,2013-01-02 17:52:00,
2013-01-02 10:57:00,15.6,0.3,30.56,SSE,153,3.0,5.0,50,0.00,,,0.00,meteohub,2013-01-02 17:57:00,
2013-01-02 11:02:00,15.6,-0.2,30.55,ESE,118,1.0,6.0,49,0.00,,,0.00,meteohub,2013-01-02 18:02:00,
2013-01-02 11:07:00,16.5,0.7,30.55,ESE,119,3.0,6.0,49,0.00,,,0.00,meteohub,2013-01-02 18:07:00,
2013-01-02 11:12:00,16.9,-0.4,30.54,ESE,118,3.0,6.0,46,0.00,,,0.00,meteohub,2013-01-02 18:12:00,
2013-01-02 11:17:00,16.3,-0.4,30.54,SE,146,2.0,7.0,47,0.00,,,0.00,meteohub,2013-01-02 18:17:00,
2013-01-02 11:22:00,16.3,-0.4,30.54,East,96,2.0,7.0,47,0.00,,,0.00,meteohub,2013-01-02 18:22:00,
2013-01-02 11:27:00,16.9,0.5,30.53,East,98,2.0,7.0,48,0.00,,,0.00,meteohub,2013-01-02 18:27:00,
2013-01-02 11:32:00,17.2,0.0,30.53,SE,126,3.0,7.0,46,0.00,,,0.00,meteohub,2013-01-02 18:32:00,
2013-01-02 11:37:00,17.2,0.0,30.53,SE,139,3.0,6.0,46,0.00,,,0.00,meteohub,2013-01-02 18:37:00,
2013-01-02 11:42:00,17.4,-0.8,30.52,ESE,102,3.0,5.0,44,0.00,,,0.00,meteohub,2013-01-02 18:42:00,
2013-01-02 11:47:00,17.6,-0.6,30.52,WSW,255,0.0,5.0,44,0.00,,,0.00,meteohub,2013-01-02 18:47:00,
2013-01-02 11:52:00,18.7,0.0,30.51,SSE,150,2.0,5.0,43,0.00,,,0.00,meteohub,2013-01-02 18:52:00,
2013-01-02 11:57:00,18.9,-0.4,30.51,ESE,110,4.0,4.0,42,0.00,,,0.00,meteohub,2013-01-02 18:57:00,
2013-01-02 12:02:00,18.9,-0.4,30.51,ESE,117,2.0,5.0,42,0.00,,,0.00,meteohub,2013-01-02 19:02:00,
2013-01-02 12:07:00,18.7,-2.2,30.51,ESE,115,4.0,5.0,39,0.00,,,0.00,meteohub,2013-01-02 19:07:00,
2013-01-02 12:12:00,18.7,-2.2,30.50,NE,37,2.0,4.0,39,0.00,,,0.00,meteohub,2013-01-02 19:12:00,
2013-01-02 12:17:00,18.3,-3.1,30.50,East,88,1.0,5.0,38,0.00,,,0.00,meteohub,2013-01-02 19:17:00,
2013-01-02 12:22:00,18.3,-3.1,30.50,NE,39,0.0,5.0,38,0.00,,,0.00,meteohub,2013-01-02 19:22:00,
2013-01-02 12:27:00,18.7,-2.2,30.50,East,90,3.0,5.0,39,0.00,,,0.00,meteohub,2013-01-02 19:27:00,
2013-01-02 12:32:00,18.9,-2.6,30.49,NNE,30,0.0,5.0,38,0.00,,,0.00,meteohub,2013-01-02 19:32:00,
2013-01-02 12:37:00,19.2,-2.7,30.49,SE,138,2.0,5.0,37,0.00,,,0.00,meteohub,2013-01-02 19:37:00,
2013-01-02 12:42:00,19.8,-1.1,30.48,SE,138,0.0,5.0,39,0.00,,,0.00,meteohub,2013-01-02 19:42:00,
2013-01-02 12:47:00,20.7,-0.9,30.48,SSE,148,3.0,6.0,38,0.00,,,0.00,meteohub,2013-01-02 19:47:00,
2013-01-02 12:52:00,20.1,-2.6,30.48,SE,144,4.0,6.0,36,0.00,,,0.00,meteohub,2013-01-02 19:52:00,
2013-01-02 12:57:00,20.1,-2.0,30.48,ENE,75,1.0,7.0,37,0.00,,,0.00,meteohub,2013-01-02 19:57:00,
2013-01-02 13:02:00,20.1,-2.0,30.48,NE,46,0.0,7.0,37,0.00,,,0.00,meteohub,2013-01-02 20:02:00,
2013-01-02 13:07:00,20.1,-2.0,30.48,NNE,12,3.0,5.0,37,0.00,,,0.00,meteohub,2013-01-02 20:07:00,
2013-01-02 13:12:00,19.8,-2.9,30.48,NE,37,3.0,4.0,36,0.00,,,0.00,meteohub,2013-01-02 20:12:00,
2013-01-02 13:17:00,19.8,-2.4,30.48,ENE,71,2.0,5.0,37,0.00,,,0.00,meteohub,2013-01-02 20:17:00,
2013-01-02 13:22:00,19.9,-2.7,30.48,ENE,63,0.0,5.0,36,0.00,,,0.00,meteohub,2013-01-02 20:22:00,
2013-01-02 13:27:00,20.1,-2.0,30.47,NNW,328,4.0,5.0,37,0.00,,,0.00,meteohub,2013-01-02 20:27:00,
2013-01-02 13:32:00,20.1,-2.0,30.47,West,269,3.0,7.0,37,0.00,,,0.00,meteohub,2013-01-02 20:32:00,
2013-01-02 13:37:00,20.1,-2.0,30.47,NW,323,1.0,7.0,37,0.00,,,0.00,meteohub,2013-01-02 20:37:00,
2013-01-02 13:42:00,20.5,-1.7,30.47,WNW,290,0.0,7.0,37,0.00,,,0.00,meteohub,2013-01-02 20:42:00,
2013-01-02 13:47:00,20.8,-1.8,30.47,North,8,0.0,6.0,36,0.00,,,0.00,meteohub,2013-01-02 20:47:00,
2013-01-02 13:52:00,21.4,-0.9,30.46,SSE,165,1.0,6.0,37,0.00,,,0.00,meteohub,2013-01-02 20:52:00,
2013-01-02 13:57:00,22.3,-1.3,30.47,WSW,250,2.0,4.0,35,0.00,,,0.00,meteohub,2013-01-02 20:57:00,
2013-01-02 14:02:00,22.1,-1.3,30.47,WNW,285,0.0,4.0,35,0.00,,,0.00,meteohub,2013-01-02 21:02:00,
2013-01-02 14:07:00,23.0,-0.6,30.47,WSW,257,0.0,4.0,35,0.00,,,0.00,meteohub,2013-01-02 21:07:00,
2013-01-02 14:12:00,23.2,-1.1,30.46,WNW,293,0.0,4.0,34,0.00,,,0.00,meteohub,2013-01-02 21:12:00,
2013-01-02 14:17:00,22.5,-2.4,30.47,NW,316,1.0,2.0,33,0.00,,,0.00,meteohub,2013-01-02 21:17:00,
2013-01-02 14:22:00,21.9,-2.2,30.47,North,6,2.0,5.0,34,0.00,,,0.00,meteohub,2013-01-02 21:22:00,
2013-01-02 14:27:00,21.7,-1.7,30.46,NE,38,2.0,6.0,35,0.00,,,0.00,meteohub,2013-01-02 21:27:00,
2013-01-02 14:32:00,21.9,-1.5,30.46,NW,323,5.0,6.0,35,0.00,,,0.00,meteohub,2013-01-02 21:32:00,
2013-01-02 14:37:00,21.9,-2.2,30.46,NNW,333,2.0,6.0,34,0.00,,,0.00,meteohub,2013-01-02 21:37:00,
2013-01-02 14:42:00,21.7,-1.7,30.46,NW,323,3.0,7.0,35,0.00,,,0.00,meteohub,2013-01-02 21:42:00,
2013-01-02 14:47:00,21.7,-1.1,30.46,North,350,3.0,8.0,36,0.00,,,0.00,meteohub,2013-01-02 21:47:00,
2013-01-02 14:52:00,21.7,-1.7,30.46,NW,319,4.0,8.0,35,0.00,,,0.00,meteohub,2013-01-02 21:52:00,
2013-01-02 14:57:00,21.7,-1.7,30.46,NNW,330,4.0,9.0,35,0.00,,,0.00,meteohub,2013-01-02 21:57:00,
2013-01-02 15:02:00,21.6,-1.3,30.46,NW,319,5.0,9.0,36,0.00,,,0.00,meteohub,2013-01-02 22:02:00,
2013-01-02 15:07:00,21.6,0.0,30.46,NW,322,5.0,13.0,38,0.00,,,0.00,meteohub,2013-01-02 22:07:00,
2013-01-02 15:12:00,21.6,-0.8,30.46,NNE,24,7.0,13.0,37,0.00,,,0.00,meteohub,2013-01-02 22:12:00,
2013-01-02 15:17:00,21.4,-0.9,30.46,NNW,331,6.0,13.0,37,0.00,,,0.00,meteohub,2013-01-02 22:17:00,
2013-01-02 15:22:00,20.8,-0.2,30.46,NW,322,13.0,15.0,39,0.00,,,0.00,meteohub,2013-01-02 22:22:00,
2013-01-02 15:27:00,20.7,0.1,30.46,North,349,9.0,15.0,40,0.00,,,0.00,meteohub,2013-01-02 22:27:00,
2013-01-02 15:32:00,20.5,-0.6,30.47,NW,322,10.0,15.0,39,0.00,,,0.00,meteohub,2013-01-02 22:32:00,
2013-01-02 15:37:00,20.1,-0.9,30.47,NNW,328,9.0,16.0,39,0.00,,,0.00,meteohub,2013-01-02 22:37:00,
2013-01-02 15:42:00,19.9,-1.7,30.47,NNW,329,8.0,16.0,38,0.00,,,0.00,meteohub,2013-01-02 22:42:00,
2013-01-02 15:47:00,19.9,-1.1,30.47,NW,312,6.0,16.0,39,0.00,,,0.00,meteohub,2013-01-02 22:47:00,
2013-01-02 15:52:00,19.8,-1.1,30.47,NNW,342,6.0,16.0,39,0.00,,,0.00,meteohub,2013-01-02 22:52:00,
2013-01-02 15:57:00,19.6,-1.3,30.47,NW,323,4.0,16.0,39,0.00,,,0.00,meteohub,2013-01-02 22:57:00,
2013-01-02 16:02:00,19.2,-1.1,30.47,NW,322,7.0,12.0,40,0.00,,,0.00,meteohub,2013-01-02 23:02:00,
2013-01-02 16:07:00,19.2,-1.7,30.47,NNW,335,7.0,12.0,39,0.00,,,0.00,meteohub,2013-01-02 23:07:00,
2013-01-02 16:12:00,19.0,-1.8,30.47,NNW,342,10.0,12.0,39,0.00,,,0.00,meteohub,2013-01-02 23:12:00,
2013-01-02 16:17:00,18.5,-2.9,30.47,NNW,328,7.0,12.0,38,0.00,,,0.00,meteohub,2013-01-02 23:17:00,
2013-01-02 16:22:00,18.1,-2.7,30.48,NNW,338,6.0,12.0,39,0.00,,,0.00,meteohub,2013-01-02 23:22:00,
2013-01-02 16:27:00,18.1,-2.7,30.48,NNW,340,10.0,12.0,39,0.00,,,0.00,meteohub,2013-01-02 23:27:00,
2013-01-02 16:32:00,17.8,-3.5,30.48,NW,324,5.0,12.0,38,0.00,,,0.00,meteohub,2013-01-02 23:32:00,
2013-01-02 16:37:00,17.4,-3.3,30.48,NNW,332,4.0,11.0,39,0.00,,,0.00,meteohub,2013-01-02 23:37:00,
2013-01-02 16:42:00,17.1,-3.6,30.48,NNW,331,5.0,11.0,39,0.00,,,0.00,meteohub,2013-01-02 23:42:00,
2013-01-02 16:47:00,16.9,-3.8,30.48,West,276,4.0,11.0,39,0.00,,,0.00,meteohub,2013-01-02 23:47:00,
2013-01-02 16:52:00,16.7,-4.5,30.48,NW,326,7.0,11.0,38,0.00,,,0.00,meteohub,2013-01-02 23:52:00,
2013-01-02 16:57:00,16.5,-4.2,30.48,NW,321,8.0,14.0,39,0.00,,,0.00,meteohub,2013-01-02 23:57:00,
2013-01-02 17:02:00,16.3,-4.4,30.49,NNW,328,12.0,14.0,39,0.00,,,0.00,meteohub,2013-01-03 00:02:00,
2013-01-02 17:07:00,16.2,-4.0,30.48,NW,321,10.0,16.0,40,0.00,,,0.00,meteohub,2013-01-03 00:07:00,
2013-01-02 17:12:00,16.0,-4.0,30.49,NW,322,16.0,18.0,40,0.00,,,0.00,meteohub,2013-01-03 00:12:00,
2013-01-02 17:17:00,16.0,-4.0,30.49,NW,319,12.0,19.0,40,0.00,,,0.00,meteohub,2013-01-03 00:17:00,
2013-01-02 17:22:00,15.6,-3.8,30.50,NW,322,11.0,19.0,41,0.00,,,0.00,meteohub,2013-01-03 00:22:00,
2013-01-02 17:27:00,15.4,-4.0,30.50,NW,319,11.0,19.0,41,0.00,,,0.00,meteohub,2013-01-03 00:27:00,
2013-01-02 17:32:00,16.0,-4.0,30.50,NW,325,9.0,17.0,40,0.00,,,0.00,meteohub,2013-01-03 00:32:00,
2013-01-02 17:37:00,16.3,-4.4,30.50,NNE,12,7.0,18.0,39,0.00,,,0.00,meteohub,2013-01-03 00:37:00,
2013-01-02 17:42:00,16.5,-4.2,30.51,NNW,335,8.0,20.0,39,0.00,,,0.00,meteohub,2013-01-03 00:42:00,
2013-01-02 17:48:00,16.0,-4.5,30.51,NNW,331,14.0,20.0,39,0.00,,,0.00,meteohub,2013-01-03 00:48:00,
2013-01-02 17:53:00,16.3,-4.4,30.51,NNW,336,14.0,20.0,39,0.00,,,0.00,meteohub,2013-01-03 00:53:00,
2013-01-02 17:59:00,16.5,-4.7,30.51,NW,321,9.0,20.0,38,0.00,,,0.00,meteohub,2013-01-03 00:59:00,
2013-01-02 18:04:00,16.5,-4.7,30.52,NNW,328,11.0,20.0,38,0.00,,,0.00,meteohub,2013-01-03 01:04:00,
2013-01-02 18:10:00,16.0,-4.5,30.52,NNW,333,9.0,20.0,39,0.00,,,0.00,meteohub,2013-01-03 01:10:00,
2013-01-02 18:15:00,15.6,-4.4,30.53,NNW,328,11.0,17.0,40,0.00,,,0.00,meteohub,2013-01-03 01:15:00,
2013-01-02 18:21:00,14.9,-4.5,30.53,NNW,338,13.0,16.0,41,0.00,,,0.00,meteohub,2013-01-03 01:21:00,
2013-01-02 18:26:00,14.5,-4.4,30.53,NW,321,11.0,15.0,42,0.00,,,0.00,meteohub,2013-01-03 01:26:00,
2013-01-02 18:32:00,13.8,-4.5,30.53,NW,325,8.0,14.0,43,0.00,,,0.00,meteohub,2013-01-03 01:32:00,
2013-01-02 18:37:00,13.6,-4.2,30.53,NW,321,8.0,14.0,44,0.00,,,0.00,meteohub,2013-01-03 01:37:00,
2013-01-02 18:42:00,13.3,-4.2,30.53,NW,322,13.0,15.0,45,0.00,,,0.00,meteohub,2013-01-03 01:42:00,
2013-01-02 18:47:00,12.9,-4.4,30.53,NNW,333,11.0,15.0,45,0.00,,,0.00,meteohub,2013-01-03 01:47:00,
2013-01-02 18:52:00,12.9,-4.0,30.53,NW,326,9.0,15.0,46,0.00,,,0.00,meteohub,2013-01-03 01:52:00,
2013-01-02 18:57:00,12.7,-3.6,30.54,NNW,329,11.0,14.0,47,0.00,,,0.00,meteohub,2013-01-03 01:57:00,
2013-01-02 19:02:00,12.7,-3.3,30.54,NNW,333,10.0,14.0,48,0.00,,,0.00,meteohub,2013-01-03 02:02:00,
2013-01-02 19:07:00,12.6,-2.9,30.54,NW,323,7.0,14.0,49,0.00,,,0.00,meteohub,2013-01-03 02:07:00,
2013-01-02 19:12:00,12.4,-3.1,30.54,NW,323,7.0,13.0,49,0.00,,,0.00,meteohub,2013-01-03 02:12:00,
2013-01-02 19:17:00,12.6,-2.9,30.54,NNW,335,8.0,13.0,49,0.00,,,0.00,meteohub,2013-01-03 02:17:00,
2013-01-02 19:22:00,12.6,-2.9,30.54,NNW,335,7.0,16.0,49,0.00,,,0.00,meteohub,2013-01-03 02:22:00,
2013-01-02 19:27:00,12.2,-3.3,30.54,NNW,335,3.0,16.0,49,0.00,,,0.00,meteohub,2013-01-03 02:27:00,
2013-01-02 19:32:00,11.8,-3.6,30.55,NW,314,8.0,16.0,49,0.00,,,0.00,meteohub,2013-01-03 02:32:00,
2013-01-02 19:38:00,11.7,-4.2,30.56,NW,319,9.0,12.0,48,0.00,,,0.00,meteohub,2013-01-03 02:38:00,
2013-01-02 19:43:00,11.5,-4.4,30.56,NW,311,3.0,12.0,48,0.00,,,0.00,meteohub,2013-01-03 02:43:00,
2013-01-02 19:49:00,10.9,-5.8,30.56,NW,311,8.0,12.0,46,0.00,,,0.00,meteohub,2013-01-03 02:49:00,
2013-01-02 19:54:00,10.6,-5.6,30.56,NNW,332,6.0,12.0,47,0.00,,,0.00,meteohub,2013-01-03 02:54:00,
2013-01-02 20:00:00,10.9,-4.5,30.56,NW,325,11.0,15.0,49,0.00,,,0.00,meteohub,2013-01-03 03:00:00,
2013-01-02 20:05:00,11.3,-4.5,30.56,NNW,335,6.0,15.0,48,0.00,,,0.00,meteohub,2013-01-03 03:05:00,
2013-01-02 20:11:00,11.1,-5.6,30.56,NW,319,8.0,15.0,46,0.00,,,0.00,meteohub,2013-01-03 03:11:00,
2013-01-02 20:16:00,11.5,-5.8,30.56,NW,326,9.0,14.0,45,0.00,,,0.00,meteohub,2013-01-03 03:16:00,
2013-01-02 20:22:00,11.7,-5.6,30.56,NNW,329,8.0,14.0,45,0.00,,,0.00,meteohub,2013-01-03 03:22:00,
2013-01-02 20:27:00,11.3,-6.0,30.56,NNW,328,5.0,14.0,45,0.00,,,0.00,meteohub,2013-01-03 03:27:00,
2013-01-02 20:32:00,10.8,-6.3,30.56,NW,321,3.0,12.0,45,0.00,,,0.00,meteohub,2013-01-03 03:32:00,
2013-01-02 20:38:00,10.0,-6.7,30.57,NW,319,6.0,11.0,46,0.00,,,0.00,meteohub,2013-01-03 03:38:00,
2013-01-02 20:44:00,9.1,-6.5,30.57,NNW,335,4.0,9.0,48,0.00,,,0.00,meteohub,2013-01-03 03:44:00,
2013-01-02 20:49:00,8.4,-6.9,30.57,NW,325,6.0,7.0,49,0.00,,,0.00,meteohub,2013-01-03 03:49:00,
2013-01-02 20:54:00,9.1,-6.5,30.57,NNW,331,9.0,9.0,48,0.00,,,0.00,meteohub,2013-01-03 03:54:00,
2013-01-02 21:00:00,10.0,-5.8,30.58,NNW,333,9.0,12.0,48,0.00,,,0.00,meteohub,2013-01-03 04:00:00,
2013-01-02 21:05:00,10.2,-6.0,30.58,NNW,328,7.0,12.0,47,0.00,,,0.00,meteohub,2013-01-03 04:05:00,
2013-01-02 21:11:00,10.4,-5.4,30.58,NW,315,11.0,13.0,48,0.00,,,0.00,meteohub,2013-01-03 04:11:00,
2013-01-02 21:16:00,9.9,-6.0,30.59,NNW,336,11.0,13.0,48,0.00,,,0.00,meteohub,2013-01-03 04:16:00,
2013-01-02 21:22:00,9.3,-6.3,30.59,NNW,330,5.0,13.0,48,0.00,,,0.00,meteohub,2013-01-03 04:22:00,
2013-01-02 21:27:00,9.1,-6.5,30.58,NNW,328,10.0,13.0,48,0.00,,,0.00,meteohub,2013-01-03 04:27:00,
2013-01-02 21:32:00,8.8,-6.9,30.59,NNW,340,5.0,12.0,48,0.00,,,0.00,meteohub,2013-01-03 04:32:00,
2013-01-02 21:37:00,8.6,-7.1,30.59,NW,321,7.0,11.0,48,0.00,,,0.00,meteohub,2013-01-03 04:37:00,
2013-01-02 21:42:00,9.7,-6.2,30.59,NW,321,6.0,13.0,48,0.00,,,0.00,meteohub,2013-01-03 04:42:00,
2013-01-02 21:47:00,9.1,-7.4,30.60,NW,319,6.0,13.0,46,0.00,,,0.00,meteohub,2013-01-03 04:47:00,
2013-01-02 21:52:00,8.8,-6.9,30.60,NNW,333,6.0,13.0,48,0.00,,,0.00,meteohub,2013-01-03 04:52:00,
2013-01-02 21:57:00,8.6,-6.7,30.61,NW,317,7.0,11.0,49,0.00,,,0.00,meteohub,2013-01-03 04:57:00,
2013-01-02 22:00:00,8.4,-6.9,30.61,NW,321,4.0,11.0,49,0.00,,,0.00,meteohub,2013-01-03 05:00:00,
2013-01-02 22:01:00,8.4,-6.9,30.61,NW,323,5.0,11.0,49,0.00,,,0.00,meteohub,2013-01-03 05:01:00,
2013-01-02 22:03:00,8.2,-7.1,30.61,NNW,332,5.0,11.0,49,0.00,,,0.00,meteohub,2013-01-03 05:03:00,
2013-01-02 22:07:00,7.9,-6.9,30.62,WNW,302,1.0,11.0,50,0.00,,,0.00,meteohub,2013-01-03 05:07:00,
2013-01-02 22:12:00,7.9,-7.2,30.62,NW,319,2.0,7.0,49,0.00,,,0.00,meteohub,2013-01-03 05:12:00,
2013-01-02 22:17:00,7.7,-8.0,30.62,WNW,295,1.0,6.0,48,0.00,,,0.00,meteohub,2013-01-03 05:17:00,
2013-01-02 22:22:00,8.2,-7.4,30.62,WSW,250,1.0,5.0,48,0.00,,,0.00,meteohub,2013-01-03 05:22:00,
2013-01-02 22:27:00,9.1,-7.1,30.63,NW,312,1.0,5.0,47,0.00,,,0.00,meteohub,2013-01-03 05:27:00,
2013-01-02 22:32:00,9.0,-7.6,30.63,NW,319,1.0,5.0,46,0.00,,,0.00,meteohub,2013-01-03 05:32:00,
2013-01-02 22:37:00,8.8,-7.8,30.63,NW,324,1.0,3.0,46,0.00,,,0.00,meteohub,2013-01-03 05:37:00,
2013-01-02 22:42:00,8.6,-7.4,30.64,NNE,15,0.0,2.0,47,0.00,,,0.00,meteohub,2013-01-03 05:42:00,
2013-01-02 22:47:00,8.4,-7.6,30.64,NW,310,0.0,2.0,47,0.00,,,0.00,meteohub,2013-01-03 05:47:00,
2013-01-02 22:52:00,8.2,-7.1,30.64,NNW,338,2.0,2.0,49,0.00,,,0.00,meteohub,2013-01-03 05:52:00,
2013-01-02 22:57:00,8.1,-6.7,30.64,NNW,345,1.0,4.0,50,0.00,,,0.00,meteohub,2013-01-03 05:57:00,
2013-01-02 23:02:00,8.1,-6.3,30.64,NNW,335,1.0,5.0,51,0.00,,,0.00,meteohub,2013-01-03 06:02:00,
2013-01-02 23:07:00,7.7,-6.7,30.64,NW,316,4.0,5.0,51,0.00,,,0.00,meteohub,2013-01-03 06:07:00,
2013-01-02 23:12:00,7.5,-6.5,30.64,NNW,328,2.0,5.0,52,0.00,,,0.00,meteohub,2013-01-03 06:12:00,
2013-01-02 23:17:00,7.9,-6.5,30.64,WNW,298,6.0,6.0,51,0.00,,,0.00,meteohub,2013-01-03 06:17:00,
2013-01-02 23:22:00,7.7,-7.1,30.64,NW,323,3.0,7.0,50,0.00,,,0.00,meteohub,2013-01-03 06:22:00,
2013-01-02 23:27:00,7.3,-7.8,30.64,NW,321,4.0,7.0,49,0.00,,,0.00,meteohub,2013-01-03 06:27:00,
2013-01-02 23:32:00,6.8,-8.0,30.64,NW,318,4.0,7.0,50,0.00,,,0.00,meteohub,2013-01-03 06:32:00,
2013-01-02 23:37:00,7.0,-7.4,30.64,NNW,335,7.0,8.0,51,0.00,,,0.00,meteohub,2013-01-03 06:37:00,
2013-01-02 23:42:00,7.0,-7.4,30.64,NNW,338,5.0,10.0,51,0.00,,,0.00,meteohub,2013-01-03 06:42:00,
2013-01-02 23:47:00,7.0,-6.9,30.64,NNW,335,5.0,10.0,52,0.00,,,0.00,meteohub,2013-01-03 06:47:00,
2013-01-02 23:52:00,7.0,-6.9,30.64,WNW,300,6.0,10.0,52,0.00,,,0.00,meteohub,2013-01-03 06:52:00,
2013-01-02 23:57:00,7.0,-6.9,30.64,NNW,331,4.0,10.0,52,0.00,,,0.00,meteohub,2013-01-03 06:57:00,